[[{"header":{"parameterUnit":"m.s-1","parameterCategory":1,"la1":30.2992,"la2":30.254,"lo1":-89.0895,"lo2":-89.0443,"dy":0.0025,"dx":0.0025,"nx":19,"ny":19,"refTime":"2026-05-18T09:00:00:Z","depth":0,"parameterNumber":2,"parameterNumberName":"U-component_of_WINDS"},"data":[0,0,0,-5.5966,-5.5969,-5.6127,-5.6127,-5.6345,-5.6348,0,0,0,0,0,0,0,0,0,0,0,-5.593,-5.5931,-5.5966,-5.597,-5.6127,-5.6127,-5.6345,-5.6348,0,0,0,0,0,0,0,0,0,0,0,-5.5929,-5.5931,-5.5933,-5.5971,-5.6127,-5.6127,-5.6345,-5.622,0,0,0,0,0,0,0,0,0,0,-5.6064,-5.6041,-5.593,-5.5933,-5.5971,-5.6127,-5.6128,-5.6214,-5.6228,-5.6282,0,-5.6332,0,-5.6344,-5.6363,-5.6364,0,0,0,-5.5962,-5.6029,-5.6062,-5.5934,-5.5973,-5.6126,-5.6054,-5.6221,-5.6237,-5.63,-5.6335,-5.6343,-5.6347,-5.6365,-5.6366,-5.6704,-5.6706,0,0,-5.5953,-5.5963,-5.6051,-5.6073,-5.605,-5.6049,-5.6059,-5.6231,-5.6269,-5.6336,-5.6348,-5.6351,-5.6366,-5.6368,-5.6702,-5.6704,0,0,0,-5.5934,-5.5957,-5.5986,-5.6065,-5.6092,-5.6054,-5.6065,-5.6261,-5.627,-5.635,-5.6353,-5.6368,-5.6371,-5.67,-5.6703,-5.6808,0,0,0,-5.5928,-5.5946,-5.5983,-5.599,-5.6089,-5.6179,-5.6092,-5.6258,-5.6277,-5.6352,-5.6368,-5.6373,-5.6698,-5.6701,-5.68,-5.6855,0,0,0,-5.5916,-5.5944,-5.5971,-5.599,-5.6059,-5.6175,-5.6194,-5.6262,-5.628,-5.6364,-5.6373,-5.6696,-5.6701,-5.6793,-5.6844,-5.6946,0,0,0,-5.5905,-5.6061,-5.5972,-5.6148,-5.6057,-5.624,-5.6192,-5.6328,-5.6413,-5.6369,-5.6698,-5.6702,-5.6791,-5.6837,-5.6939,-5.7032,-5.7073,0,0,-5.6107,-5.6086,-5.6189,-5.6114,-5.6315,-5.6215,-5.6432,-5.65,-5.6499,-5.6636,-5.6644,-5.6802,-5.6843,-5.6944,-5.7299,-5.7331,0,0,0,-5.6256,-5.633,-5.6381,-5.6463,-5.652,-5.6573,-5.6608,-5.6633,-5.6749,-5.6571,-5.6868,-5.6891,-5.6951,-5.6995,-5.7022,-5.7072,-5.6724,-5.6723,-5.6723,-5.6554,-5.6546,-5.6715,-5.6727,-5.6807,-5.6842,-5.6906,-5.6947,-5.6914,-5.6985,-5.7024,-5.7241,-5.7293,-5.7313,-5.7365,-5.7075,-5.7075,-5.7076,-5.7076,-5.6848,-5.695,-5.6906,-5.7054,-5.7045,-5.7169,-5.7211,-5.7184,-5.7298,-5.721,-5.7261,-5.7163,-5.7349,-5.7394,-5.7084,-5.7082,-5.7081,-5.7081,-5.708,-5.704,-5.7087,-5.7118,-5.7236,-5.7329,-5.7336,-5.7449,-5.7436,-5.7426,-5.7477,-5.7517,-5.7515,-5.7511,-5.7498,-5.7498,-5.7499,-5.75,-5.75,-5.7501,-5.7226,-5.7257,-5.7353,-5.7429,-5.7481,-5.7547,-5.7587,-5.7638,-5.7691,-5.7673,-5.7673,-5.7633,-5.7369,-5.7302,-5.7512,-5.751,-5.7509,-5.7508,-5.7507,-5.7523,-5.7454,-5.7603,-5.7655,-5.7744,-5.7837,-5.7822,-5.7927,-5.7968,-5.8024,-5.7975,-5.7782,-5.7758,-5.7736,-5.768,-5.7976,-5.7976,-5.7976,-5.7976,-5.7683,-5.7671,-5.7821,-5.7906,-5.7987,-5.7989,-5.8158,-5.8192,-5.8215,-5.824,-5.8197,-5.8122,-5.8101,-5.809,-5.8061,-5.8008,-5.838,-5.8381,-5.8381,-5.7865,-5.7861,-5.8006,-5.8029,-5.8098,-5.8158,-5.8317,-5.8416,-5.8429,-5.8397,-5.8259,-5.8242,-5.8122,-5.8084,-5.8045,-5.8,-5.7903,0,0]},{"header":{"parameterUnit":"m.s-1","parameterCategory":1,"la1":30.2992,"la2":30.254,"lo1":-89.0895,"lo2":-89.0443,"dy":0.0025,"dx":0.0025,"nx":19,"ny":19,"refTime":"2026-05-18T09:00:00:Z","depth":0,"parameterNumber":3,"parameterNumberName":"V-component_of_WINDS"},"data":[0,0,0,1.8679,1.868,1.8682,1.8682,1.869,1.869,0,0,0,0,0,0,0,0,0,0,0,1.8683,1.8683,1.8679,1.868,1.8682,1.8682,1.869,1.869,0,0,0,0,0,0,0,0,0,0,0,1.8683,1.8683,1.8683,1.868,1.8682,1.8682,1.869,1.8686,0,0,0,0,0,0,0,0,0,0,1.8683,1.869,1.8683,1.8683,1.868,1.8682,1.8682,1.8686,1.8686,1.8691,0,1.8698,0,1.8694,1.8691,1.8691,0,0,0,1.8676,1.8689,1.8687,1.8683,1.868,1.8682,1.868,1.8686,1.8687,1.8692,1.8698,1.8698,1.8694,1.8691,1.8691,1.8736,1.8737,0,0,1.8676,1.8685,1.8686,1.8687,1.8688,1.868,1.868,1.8686,1.8692,1.8698,1.8698,1.8695,1.8691,1.8691,1.8736,1.8736,0,0,0,1.8678,1.8685,1.8682,1.8687,1.8687,1.868,1.868,1.8692,1.8691,1.8698,1.8695,1.8691,1.8691,1.8735,1.8736,1.8764,0,0,0,1.8678,1.8686,1.8682,1.8687,1.8687,1.869,1.8686,1.869,1.8691,1.8695,1.8691,1.8692,1.8735,1.8736,1.8762,1.8775,0,0,0,1.8681,1.8686,1.8688,1.8688,1.8689,1.869,1.8688,1.869,1.8689,1.8691,1.8692,1.8735,1.8736,1.8761,1.8773,1.8791,0,0,0,1.8687,1.8711,1.8689,1.8714,1.8689,1.8707,1.8688,1.8701,1.8706,1.8691,1.8735,1.8736,1.876,1.8771,1.8789,1.8808,1.8816,0,0,1.8722,1.8715,1.873,1.871,1.8735,1.8706,1.8735,1.873,1.8721,1.8732,1.8733,1.8763,1.8773,1.879,1.8861,1.8867,0,0,0,1.8744,1.8755,1.8759,1.8766,1.8765,1.8765,1.8756,1.8755,1.8764,1.8729,1.8774,1.8779,1.8789,1.8798,1.8804,1.8812,1.874,1.874,1.874,1.8805,1.8795,1.8819,1.881,1.8817,1.8809,1.8814,1.8811,1.8796,1.8807,1.881,1.8854,1.8864,1.8869,1.8878,1.8819,1.8819,1.8819,1.8819,1.8856,1.887,1.8854,1.8872,1.8861,1.8875,1.8869,1.8859,1.8871,1.885,1.8859,1.8837,1.8876,1.8884,1.8821,1.8821,1.882,1.882,1.882,1.8895,1.89,1.89,1.8911,1.892,1.891,1.8923,1.8912,1.8902,1.891,1.8913,1.8912,1.8911,1.8912,1.8913,1.8913,1.8913,1.8913,1.8913,1.8935,1.8935,1.8948,1.8951,1.8955,1.896,1.8954,1.8957,1.8959,1.895,1.895,1.8935,1.8882,1.887,1.8915,1.8915,1.8915,1.8914,1.8914,1.8991,1.8978,1.8998,1.9003,1.9007,1.9018,1.9005,1.9014,1.9015,1.9022,1.9007,1.897,1.8961,1.8957,1.8946,1.9009,1.9009,1.9009,1.9009,1.9024,1.902,1.904,1.9048,1.9055,1.9047,1.9071,1.9067,1.9061,1.9062,1.9051,1.9036,1.9032,1.9026,1.902,1.901,1.9087,1.9087,1.9087,1.9058,1.9055,1.9077,1.9073,1.9077,1.908,1.9102,1.9112,1.9102,1.909,1.9062,1.9059,1.9034,1.9027,1.9013,1.9004,1.8985,0,0]}]]